Hourly Data Report for February 15, 2004

TORONTO CITY
ONTARIO

43°40'00.000" N
79°24'00.000" W
112.50 m
6158355
71508
XTO

Download Data

Hourly Data (February 2004)
Hourly Data Report for February 15, 2004
TIME
LST
Temp Definition
°C
Dew Point Definition
°C
Rel Hum Definition
%
Precip. Amount Definition
mm

Wind Dir Definition
10's deg

Wind Spd Definition
km/h
Visibility Definition
km
Stn Press Definition
kPa
Hmdx Definition


Wind Chill Definition


Weather Definition


00:00 -10.4 -16.2 62   LegendMM LegendMM LegendMM 100.64     LegendNANA
01:00 -10.8 -16.0 65   LegendMM LegendMM LegendMM 100.75     LegendNANA
02:00 -10.7 -16.5 62   LegendMM LegendMM LegendMM 100.82     LegendNANA
03:00 -11.0 -17.3 60   LegendMM LegendMM LegendMM 100.89     LegendNANA
04:00 -12.4 -17.3 67   LegendMM LegendMM LegendMM 100.99     LegendNANA
05:00 -13.3 -20.0 57   LegendMM LegendMM LegendMM 101.11     LegendNANA
06:00 -15.3 -23.8 48   LegendMM LegendMM LegendMM 101.26     LegendNANA
07:00 -16.6 -25.6 46   LegendMM LegendMM LegendMM 101.36     LegendNANA
08:00 -16.8 -26.4 43   LegendMM LegendMM LegendMM 101.46     LegendNANA
09:00 -15.6 -26.8 38   LegendMM LegendMM LegendMM 101.52     LegendNANA
10:00 -14.7 -27.1 34   LegendMM LegendMM LegendMM 101.57     LegendNANA
11:00 -12.3 -24.5 35   LegendMM LegendMM LegendMM 101.58     LegendNANA
12:00 -11.8 -23.7 37   LegendMM LegendMM LegendMM 101.60     LegendNANA
13:00 -11.2 -23.6 35   LegendMM LegendMM LegendMM 101.56     LegendNANA
14:00 -11.2 -23.8 35   LegendMM LegendMM LegendMM 101.51     LegendNANA
15:00 -11.0 -23.6 35   LegendMM LegendMM LegendMM 101.51     LegendNANA
16:00 -10.7 -24.1 32   LegendMM LegendMM LegendMM 101.53     LegendNANA
17:00 -10.6 -23.8 33   LegendMM LegendMM LegendMM 101.52     LegendNANA
18:00 -11.1 -23.4 35   LegendMM LegendMM LegendMM 101.54     LegendNANA
19:00 -10.7 -23.2 35   LegendMM LegendMM LegendMM 101.60     LegendNANA
20:00 -11.0 -22.3 39   LegendMM LegendMM LegendMM 101.67     LegendNANA
21:00 -11.1 -21.5 42   LegendMM LegendMM LegendMM 101.69     LegendNANA
22:00 -11.4 -20.3 48   LegendMM LegendMM LegendMM 101.77     LegendNANA
23:00 -11.5 -19.9 50   LegendMM LegendMM LegendMM 101.80     LegendNANA

Notes on Data Quality.

Legend

  • E = Estimated
  • M = Missing
  • NA = Not Available*
  • [empty] = Indicates an unobserved value
Date modified: